Regional Weather Roundup
Issued by NWS State College, PA

Home | Current Version | Previous Version | Text Only | Print | Product List | Glossary On
Versions: 1 2 3 4 5 6 7 8 9 10 11 12 13 14 15 16 17 18 19 20 21 22 23 24 25 26 27 28 29 30 31 32 33 34 35 36 37 38 39 40 41 42 43 44 45 46 47 48 49 50
000
ASUS41 KCTP 272210
RWRCTP

REGIONAL WEATHER ROUNDUP
NATIONAL WEATHER SERVICE STATE COLLEGE PA
600 PM EDT MON MAR 27 2017

Note: "fair" indicates few or no clouds below 12,000 feet with no
significant weather and/or obstructions to visibility.

* = STATION THAT DOES NOT REPORT PRECIPITATION /E.G. RAIN...SNOW...ETC/
    THUNDER OR FOG.

PAZ002>004-007>009-013>016-020>023-029>032-272300-
WESTERN PENNSYLVANIA

CITY           SKY/WX    TMP DP  RH WIND       PRES   REMARKS
ERIE           SUNNY     56  47  71 W10       29.92S
MEADVILLE      CLOUDY    61  46  57 SW7       29.90S
FRANKLIN*      CLOUDY    61  46  59 SW5       29.92S
NEW CASTLE     FAIR      63  48  58 W8        29.91F
BEAVER COUNTY  MOSUNNY   64  46  52 SW7       29.91F
BUTLER*        CLOUDY    64  46  52 SW7       29.92F
PITTSBURGH INT CLOUDY    67  49  52 W8        29.90F
PITTSBURGH     MOSUNNY   68  47  46 W7        29.90F
INDIANA*       PTSUNNY   66  50  55 W9        29.93F
LATROBE        PTSUNNY   68  50  52 SW10      29.92S
WASHINGTON CO* CLOUDY    68  48  49 SW10G17   29.93F
$$

PAZ004>006-010>012-017>019-024>028-033>037-041-042-045-046-049>053-272300-
CENTRAL PENNSYLVANIA

CITY           SKY/WX    TMP DP  RH WIND       PRES   REMARKS
BRADFORD       CLOUDY    59  45  59 SW8       29.91S
DUBOIS         MOSUNNY   61  44  53 SW8       29.91F
CLEARFIELD       N/A    N/A N/A N/A MISG      29.91F
JOHNSTOWN      PTSUNNY   64  48  56 W10       29.93S
ALTOONA        CLOUDY    68  49  50 SW10      29.92S
STATE COLLEGE  MOSUNNY   66  48  52 CALM      29.90F
WILLIAMSPORT   CLOUDY    59  48  67 E8        29.91F
SELINSGROVE    CLOUDY    60  51  72 SE7       29.93F
FT INDIANTOWN  PTSUNNY   56  56  97 CALM      29.95F
CAPITAL CITY   SUNNY     61  50  67 E3        29.94F
HARRISBURG     PTSUNNY   58  51  78 S3        29.93F
YORK           SUNNY     68  57  68 NE5       29.92F
$$

PAZ038>040-043-044-047-048-054-055-060>062-067>071-272300-
EASTERN PENNSYLVANIA

CITY           SKY/WX    TMP DP  RH WIND       PRES   REMARKS
SCRANTON       SUNNY     57  48  72 W3        29.94F
MOUNT POCONO   SUNNY     56  48  74 W9        29.94F
ALLENTOWN      CLOUDY    57  48  72 S5        29.97F
QUAKERTOWN*    MOCLDY    55  50  82 CALM      29.98F
READING        CLOUDY    57  51  80 CALM      29.95F
LANCASTER      SUNNY     60  54  80 E6        29.95F
COATESVILLE    CLEAR     63  55  77 CALM      29.97S
POTTSTOWN      SUNNY     58  50  75 CALM      29.97F
BLUE BELL      SUNNY     57  52  82 CALM      29.96S
DOYLESTOWN     CLOUDY    56  51  84 SW3       29.96F
WILLOW GROVE   NOT AVBL
NORTH PHILA    CLOUDY    59  53  80 VRB5      29.98F HAZE
PHILADELPHIA   PTSUNNY   61  53  75 CALM      29.97F
$$



USA.gov is the U.S. government's official web portal to all federal, state and local government web resources and services.